ARIANE 5 DEB (SYLDA)

基本信息
目录编号:
27717
目录名称:
ARIANE 5 DEB (SYLDA)
国际标识:
2003-013D
轨道中心:
EARTH
物体状态:
在轨
发射日期:
2003-04-09 UTC
轨道信息
数据来源: 国际轨道数据
星历时间: 2026-07-14T05:39:54+0800
半长轴: 24786.601km
偏心率: 0.7089822
轨道倾角: 1.438°
近地点辐角: 2.604°
升交点赤经: 248.905°
平近点角: 24.598°
近地点: 835.205km
远地点: 35981.723km
周期: 647.270分钟
每日圈数: 2.22473
详细信息
发射场:
FRGUI
轨道高度:
LEO
数据来源:
AOE Integration Group
参考系:
TEME
时间系统:
UTC
历元类型:
SGP4
2D轨道图
3D轨道图
轨道高度分析图
轨道倾角分析图
轨道综合分析图
查看轨道综合分析图